Tracking 19827 objects as of 22-Aug-2019
HD Live streaming from Space Station
objects crossing your sky now

FENGYUN 1C DEB

Track FENGYUN 1C DEB now!
10-day predictions


NORAD ID: 30348
Int'l Code: 1999-025ABK
Perigee: 825.4 km
Apogee: 859.1 km
Inclination: 99.0 °
Period: 101.6 minutes
Semi major axis: 7213 km
RCS: 0.044 m2 (small)
Launch date: May 10, 1999
Source: People's Republic of China (PRC)
Launch site: Taiyaun Space Center, China (TSC)

Note: This is SATELLITE DEBRIS
aabbcc
Your satellite tracking list
Your tracking list is empty




NASA's NSSDC Master Catalog

Two Line Element Set (TLE):
1 30348U 99025ABK 19232.79839531  .00000443  00000-0  24184-3 0  9998
2 30348  98.9784 270.5870 0023385 160.7973 259.8633 14.17116658647685
Source of the keplerian elements: AFSPC